Valentine, NE

5:57 AM CDT on August 23, 2017 (GMT -0500)
Miller Field

Weather History for KVTN - April, 2014

Change the Weather History Date:

Thursday, April 3, 2014

  Actual Average Record
Temperature  
Mean Temperature 36 °F 42 °F  
Max Temperature 42 °F 55 °F 85 °F (1943)
Min Temperature 30 °F 29 °F -8 °F (1936)
Degree Days  
Heating Degree Days 29 23  
Month to date heating degree days 106 70  
Since 1 July heating degree days 6553 6199  
Cooling Degree Days 0 0  
Month to date cooling degree days 0 0  
Year to date cooling degree days 0 0  
Moisture  
Dew Point 26 °F    
Average Humidity 70    
Maximum Humidity 85    
Minimum Humidity 55    
Precipitation  
Precipitation 0.00 in 0.05 in 1.00 in (1968)
Month to date precipitation 0.03 0.15  
Year to date precipitation 1.18 1.96  
Snow  
Snow 0.00 in 0.20 in 9.00 in (1968)
Month to date snowfall 0.3 0.6  
Since 1 July snowfall 31.8 29.2  
Snow Depth 0.00 in    
Sea Level Pressure  
Sea Level Pressure 29.95 in    
Wind  
Wind Speed 15 mph (NNW)    
Max Wind Speed 26 mph    
Max Gust Speed 34 mph    
Visibility 9 miles    
Events      
T = Trace of Precipitation, MM = Missing Value Source: NWS Daily Summary

Daily Weather History Graph

Daily Weather History Graph

Search for Another Location

Airport or City:

Trip Planner

Search our weather history database for the weather conditions in past years. The results will help you decide how hot, cold, wet, or windy it might be!

Date:

Astronomy

Apr. 03, 2014 Rise Set
Actual Time 7:20 AM CDT 8:10 PM CDT
Civil Twilight 6:52 AM CDT 8:39 PM CDT
Nautical Twilight 6:18 AM CDT 9:13 PM CDT
Astronomical Twilight 5:42 AM CDT 9:49 PM CDT
Moon 9:46 AM CDT (4/3) No Moon Set
Length of Visible Light 13h 47m
Length of Day
12h 50m
Waxing Crescent, 17% of the Moon is Illuminated
Apr 3
Waxing Crescent
Apr 7
First Quarter
Apr 15
Full
Apr 22
Last Quarter
Apr 29
New

Hourly Weather History & Observations

Time (CDT) Temp. Windchill Dew Point Humidity Pressure Visibility Wind Dir Wind Speed Gust Speed Precip Events Conditions
12:52 AM 30.0 °F 22.4 °F 25.0 °F 82% 29.96 in 10.0 mi NE 8.1 mph - N/A   Overcast
1:06 AM 30.9 °F 23.5 °F 25.0 °F 79% 29.88 in 10.0 mi ENE 8.1 mph - N/A   Overcast
1:52 AM 30.9 °F 26.2 °F 25.0 °F 79% 29.96 in 10.0 mi NE 4.6 mph - N/A   Overcast
2:52 AM 30.0 °F 25.2 °F 25.0 °F 82% 29.93 in 10.0 mi NNW 4.6 mph - N/A   Overcast
3:52 AM 30.0 °F 23.2 °F 26.1 °F 85% 29.91 in 9.0 mi North 6.9 mph - N/A   Mostly Cloudy
4:52 AM 30.0 °F 24.1 °F 26.1 °F 85% 29.90 in 7.0 mi NE 5.8 mph - N/A   Overcast
5:38 AM 30.0 °F 24.1 °F 26.1 °F 85% 29.86 in 7.0 mi North 5.8 mph - N/A   Overcast
5:52 AM 30.0 °F 22.4 °F 26.1 °F 85% 29.92 in 7.0 mi NNW 8.1 mph - N/A   Overcast
6:03 AM 30.0 °F 24.1 °F 26.1 °F 85% 29.86 in 7.0 mi North 5.8 mph - N/A   Overcast
6:35 AM 30.0 °F 23.2 °F 26.1 °F 85% 29.86 in 7.0 mi North 6.9 mph - N/A   Overcast
6:52 AM 30.0 °F 23.2 °F 27.0 °F 88% 29.94 in 6.0 mi North 6.9 mph - N/A   Overcast
6:59 AM 30.0 °F 24.1 °F 27.0 °F 88% 29.87 in 6.0 mi North 5.8 mph - N/A   Overcast
7:52 AM 30.0 °F 25.2 °F 27.0 °F 88% 29.96 in 4.0 mi NNW 4.6 mph - N/A   Overcast
8:52 AM 30.9 °F 22.8 °F 27.0 °F 85% 29.95 in 4.0 mi NW 9.2 mph - N/A   Overcast
9:44 AM 32.0 °F 22.5 °F 27.0 °F 82% 29.89 in 7.0 mi NW 12.7 mph - N/A   Mostly Cloudy
9:52 AM 32.0 °F 22.1 °F 27.0 °F 82% 29.96 in 8.0 mi NW 13.8 mph - N/A   Mostly Cloudy
10:52 AM 35.1 °F 24.8 °F 27.0 °F 72% 29.96 in 10.0 mi NNW 17.3 mph 25.3 mph N/A   Overcast
11:52 AM 37.9 °F 28.2 °F 28.0 °F 68% 29.96 in 10.0 mi NNW 18.4 mph 25.3 mph N/A   Scattered Clouds
12:52 PM 39.0 °F 28.3 °F 27.0 °F 62% 29.95 in 10.0 mi NNW 24.2 mph 29.9 mph N/A   Partly Cloudy
1:52 PM 41.0 °F 31.6 °F 27.0 °F 57% 29.94 in 10.0 mi NNW 20.7 mph 29.9 mph N/A   Clear
2:43 PM 39.9 °F 29.7 °F 26.1 °F 58% 29.88 in 10.0 mi NW 23.0 mph 31.1 mph N/A   Mostly Cloudy
2:52 PM 39.9 °F 29.5 °F 26.1 °F 58% 29.94 in 10.0 mi NNW 24.2 mph 29.9 mph N/A   Mostly Cloudy
3:52 PM 36.0 °F 24.7 °F 26.1 °F 67% 29.96 in 10.0 mi NNW 21.9 mph 33.4 mph N/A   Overcast
4:52 PM 35.1 °F 24.1 °F 25.0 °F 67% 29.97 in 10.0 mi NNW 19.6 mph 31.1 mph N/A   Overcast
5:52 PM 34.0 °F 22.7 °F 25.0 °F 70% 30.01 in 10.0 mi NNW 19.6 mph 27.6 mph N/A   Overcast
6:52 PM 33.1 °F 21.9 °F 25.0 °F 72% 30.04 in 10.0 mi NNW 18.4 mph 27.6 mph N/A   Overcast
7:52 PM 32.0 °F 19.5 °F 25.0 °F 75% 30.06 in 10.0 mi NNW 21.9 mph 31.1 mph N/A   Overcast
8:52 PM 30.9 °F 19.8 °F 24.1 °F 76% 30.08 in 10.0 mi NNW 16.1 mph 26.5 mph N/A   Overcast
10:52 PM 30.0 °F 19.5 °F 23.0 °F 75% 30.09 in 10.0 mi NNW 13.8 mph 24.2 mph N/A   Overcast
11:52 PM 30.0 °F 17.2 °F 21.9 °F 72% 30.10 in 10.0 mi NNW 20.7 mph 32.2 mph N/A   Overcast